sat.trackr.live / text

‹ back to catalog

STARLINK-3762

NORAD 52374 · 2022-045AV

PAYLOAD ACTIVE UNKNOWN

§ Identity

Operator
Country
US
Launch date
2022-04-29
Launch site
AFETR
Launch vehicle
Mass (kg)
RCS (m²)

Purposes: comms

External: N2YO · Heavens-Above · Gunter

§ Orbital elements

Epoch: 2026-09-19T22:31:19.905312Z

Period
93.85 min
Inclination
53.1597°
Eccentricity
0.0000982
Mean motion
15.34399253 rev/d
Perigee alt
462.0 km
Apogee alt
463.4 km
Semi-major
6,840.8 km
B*
-5.6112e-5
RAAN
22.0990°
Arg perigee
78.5740°
Mean anomaly
281.5372°
Rev number
24,545

§ Raw data

STARLINK-37621 52374U 22045AV  26262.93842483 -.00002271  00000+0 -56112-4 0  99952 52374  53.1597  22.0990 0000982  78.5740 281.5372 15.34399253245457

JSON: /api/v1/satellites/52374 · /tle

For live sub-satellite position, see the globe view (requires WebGL).

§ Visibility from observer

Set your observer location to see the next 7 days of passes ≥ 10°. The values pass through the URL so the page stays shareable.

No JS? Fill the form by hand. The geolocation button needs JavaScript.